Location: Bijele Vode
(45.2833°N, 16.2000°E)
Time: 22:57:42
(UTC+00:00)

Lacrosse 5 rocket - Pass Details

Date: 25 January 2021
Orbit: 465 x 630 km, 57.0° (Epoch: 06 March)

Event Time Altitude Azimuth Distance (km) Brightness Sun altitude
Exits shadow 03:14:29 14° 106° (ESE) 1,473 4.1 -33.1°
Drops below altitude 10° 03:15:04 10° 109° (ESE) 1,693 4.5 -33.0°
Sets 03:17:13 0° 115° (ESE) 2,549 5.5 -32.6°
